Вернуться в каталог

CZ-2D DEB

АктивенSSO
NORAD 44609·DEBRIS·🇨🇳 China

Запущен Oct 9, 2017 с Jiuquan Satellite Launch Center

Loading…

Ближайшие Пролёты (ближайшие 24 часа)

TLE

СвежийSource: Space-Track

Эпоха: Sep 13, 2026, 12:23 UTC

1 44609U 17060B   26256.51623632  .00003989  00000-0  31233-3 0  9990
2 44609  97.5361 272.2493 0026049  16.4629 343.7436 15.01310106478438

Отслеживайте CZ-2D DEB в реальном времени с AllMySat

Download on the App Store